City of Colorado Springs Municipal Airport
KCOS : now visible

Airfield :











YOU CAN JOIN US ON...

 
LOGIN :

Register | Disclaimer

   EN    FR    IT 

 









Legend :    VFR   Marginal VFR   IFR   Intensive IFR   Very Intensive IFR
Visi :
Ceiling :
>= 8 km
>= 3000ft
5 to 8 km
1000 to 3000 ft
1500m to 5 km
500 to 1000 ft
800 to 1500m
200 to 500 ft
< 800m
< 200 ft
Symbols :   Thunderstorms  Fog  Heavy snow  Heavy precipitations  Wind > 20 kt






- Airport Elevation : 6187 ft
- IATA code : COS


KCOS - City of Colorado Springs Municipal

CURRENT METAR :
  • 240454Z 36006KT 10SM SCT220 14/02 A3024 RMK AO2 SLP165 T01390022

EXPIRED METARs :
  • 240354Z 02004KT 10SM CLR 16/02 A3024 RMK AO2 SLP159 T01560022
  • 240254Z 17003KT 10SM CLR 18/03 A3024 RMK AO2 SLP165 T01830028 53012

TAF KCOS
Valid from the 24 at 00:00 until the 25 at 00:00 UTC


232357Z 2400/2424 21010KT P6SM FEW110
FM240200 35006KT P6SM SKC
FM241800 17010KT P6SM SKC
KZDV FIR / North America



MET'MAP, your aeronautical weather chart ! - Copyright ORBIFLY December 2007 - Disclaimer

ORBIFLY MET'MAP TEAM :

Programming & Development : Alexandra Zaïnal
Concept & original design : Baudouin d'Aumeries
Assistance for programming : Marc-Olivier Méhu
Technical & hardware support : Manuel Goepfert

Contact : metmap@orbifly.com




SOURCES & CREDITS :

   NOAA       Earth
Advisory